Regional Weather Roundup
Issued by NWS

Home | Current Version | Previous Version | Text Only | Print | Product List | Glossary On
Versions: 1 2 3 4 5 6 7 8 9 10 11 12 13 14 15 16 17 18 19 20 21 22 23 24 25 26 27 28 29 30 31 32 33 34 35 36 37 38 39 40 41 42 43 44 45 46 47 48 49 50
000
ASUS45 KPSR 211000
RWRAZ

PRELIMINARY ARIZONA REGIONAL HOURLY WEATHER ROUNDUP
NATIONAL WEATHER SERVICE PHOENIX AZ
300 AM MST TUE OCT 21 2014

NOTE: FAIR INDICATES FEW OR NO CLOUDS BELOW 12,000 FEET WITH NO
SIGNIFICANT WEATHER AND/OR OBSTRUCTIONS TO VISIBILITY.

AZZ001>003-036-211100-
NORTHWEST ARIZONA

CITY           SKY/WX    TMP DP  RH WIND       PRES   REMARKS
KINGMAN        CLEAR     59  41  51 SE5       29.96S
$$

AZZ004>008-015-016-018-211100-
NORTH CENTRAL ARIZONA

CITY           SKY/WX    TMP DP  RH WIND       PRES   REMARKS
GRAND CANYON   CLEAR     34  29  82 CALM      30.15F
PRESCOTT       CLEAR     49  39  68 S8        30.07F
FLAGSTAFF      CLEAR     37  33  85 CALM      30.17F
PAYSON         CLEAR     55  41  58 NE5       30.10F
$$

AZZ009>014-017-211100-
NORTHEAST ARIZONA

CITY           SKY/WX    TMP DP  RH WIND       PRES   REMARKS
WINSLOW        NOT AVBL
SAINT JOHNS    CLEAR     45  42  89 W3        30.11F
$$

AZZ023-211100-
GREATER PHOENIX AREA

CITY           SKY/WX    TMP DP  RH WIND       PRES   REMARKS
PHOENIX        CLEAR     72  52  49 E7        29.84F
LUKE AFB       CLEAR     64  52  63 NW8       29.85S
DEER VALLEY    CLEAR     70  48  45 NE7       29.86F
SCOTTSDALE     CLEAR     70  52  52 CALM      29.88S
$$

AZZ027-028-211100-
SOUTHWEST MARICOPA COUNTY AND PINAL COUNTY

CITY           SKY/WX    TMP DP  RH WIND       PRES   REMARKS
CASA GRANDE    CLEAR     66  48  52 CALM      29.87F
$$

AZZ503-504-507>509-211100-
SOUTHEAST ARIZONA

CITY           SKY/WX    TMP DP  RH WIND       PRES   REMARKS
TUCSON         CLEAR     65  51  60 SE7       29.94F
DAVIS-MONTHAN  CLEAR     62  50  65 SE10      29.93F
NOGALES        CLEAR     53  32  44 MISG      29.99F
SIERRA VISTA   CLEAR     54  45  71 CALM      30.04F
SAFFORD        CLEAR     59  50  72 E9        30.01R
$$

AZZ020-021-025-026-031-211100-
SOUTHWEST ARIZONA

CITY           SKY/WX    TMP DP  RH WIND       PRES   REMARKS
YUMA           CLEAR     76  61  59 SE6       29.78F
$$

CAZ031-033-041-043-047-048-061-211100-
SOUTHERN CALIFORNIA

CITY           SKY/WX    TMP DP  RH WIND       PRES   REMARKS
DOWNTOWN L.A.  CLOUDY    68  61  78 CALM      29.88F
L.A. AIRPORT   MOCLDY    64  62  93 E3        29.90S
SAN DIEGO      MOCLDY    69  60  73 CALM      29.91S
BURBANK        PTCLDY    62  58  86 CALM      29.90F
ONTARIO        PTCLDY    60  58  92 CALM      29.91F FOG
RIVERSIDE      CLEAR     61  57  87 CALM      29.92S
PALM SPRINGS   CLEAR     70  56  61 S5        29.81F
EL CENTRO NAS  CLEAR     73  46  38 W8        29.76F
IMPERIAL       CLEAR     70  52  52 W3        29.76F
BLYTHE         CLEAR     69  47  45 N8        29.79S
$$

NVZ020-UTZ003-211100-
SOUTHERN NEVADA-UTAH

CITY           SKY/WX    TMP DP  RH WIND       PRES   REMARKS
LAS VEGAS      NOT AVBL
SALT LAKE CITY MOCLDY    62  40  44 SE12      29.88F
$$

NMZ009-TXZ055-211100-
NEW MEXICO-WEST TEXAS

CITY           SKY/WX    TMP DP  RH WIND       PRES   REMARKS
ALBUQUERQUE    PTCLDY    53  47  79 N6        30.15F
EL PASO        PTCLDY    59  54  83 N7        30.06F
$$


........................KEY........................
SKY/WX - SKY CONDITION/WEATHER
TMP    - TEMPERATURE IN FAHRENHEIT
DP     - DEW POINT IN FAHRENHEIT
RH     - RELATIVE HUMIDITY IN PERCENT
WIND   - DIRECTION AND SPEED IN MILES PER HOUR (MPH)
VRB    - VARIABLE WIND DIRECTION
PRES   - MEAN SEA LEVEL PRESSURE IN INCHES OF MERCURY
         F - FALLING PRESSURE   R - RISING PRESSURE
         S - STEADY PRESSURE
VSB    - VISIBILITY IN MILES
HX     - HEAT INDEX IN FAHRENHEIT
WCI    - WIND CHILL INDEX IN FAHRENHEIT
TC     - TEMPERATURE IN CELSIUS WHICH IS ALSO KNOWN AS
         TEMPERATURE IN CENTIGRADE
AFB    - AIR FORCE BASE
         LUKE AFB IS LUKE AIR FORCE BASE
         DAVIS-MONTHAN IS DAVIS-MONTHAN AIR FORCE BASE
NAS    - NAVAL AIR STATION
         EL CENTRO NAS IS EL CENTRO NAVAL AIR STATION
N/A    - NOT AVAILABLE



USA.gov is the U.S. government's official web portal to all federal, state and local government web resources and services.